Regional Weather Roundup
Issued by NWS

Home | Current Version | Previous Version | Graphics & Text | Print | Product List | Glossary Off
Versions: 1 2 3 4 5 6 7 8 9 10 11 12 13 14 15 16 17 18 19 20 21 22 23 24 25 26

000
ASUS45 KTFX 120710
RWRMT
MONTANA REGIONAL WEATHER ROUNDUP
NATIONAL WEATHER SERVICE GREAT FALLS MT
1200 AM MST TUE DEC 12 2017

NOTE: "FAIR" INDICATES FEW OR NO CLOUDS BELOW 12000 FEET WITH NO
SIGNIFICANT WEATHER AND/OR OBSTRUCTIONS TO VISIBILITY.

MTZ001>007-043-120800-
WEST OF THE DIVIDE

CITY           SKY/WX    TMP DP  RH WIND       PRES   REMARKS
KALISPELL      CLOUDY    23  21  92 CALM      30.58S
MISSOULA       FOG       17  14  88 CALM      30.59F VSB 1/4
BUTTE          FAIR      13   6  74 S3        30.49S
MULLAN PASS    FAIR      38   1  21 S6        30.44S
ANACONDA         N/A     18   9  68 SW6       30.48F WCI   9
DEER LODGE       N/A     14   9  79 W3        30.51F
EUREKA           N/A     23  18  80 MISG      30.60S
HAMILTON         N/A     10   7  85 CALM      30.55S
LIBBY            N/A     25  21  86 SW5       30.59S
PLAINS           N/A     28  19  69 CALM      30.56
RONAN            N/A     25  22  88 CALM      30.54F
$$

MTZ008-052>055-120800-
SOUTHWEST MONTANA

CITY           SKY/WX    TMP DP  RH WIND       PRES   REMARKS
BOZEMAN        FAIR      14   9  80 S8        30.48F WCI   3
DILLON         FAIR      23  12  62 S10       30.49R WCI  12
W YELLOWSTONE  FAIR       3   0  85 CALM      30.58S
ENNIS          CLOUDY    25  14  63 CALM      30.52F
THREE FORKS      N/A     10   6  84 CALM      30.41S
TWIN BRIDGES     N/A     19   8  62 CALM      30.41
$$

MTZ009-010-012-014-046-048-049-054-120800-
EAST SLOPES AND CENTRAL MONTANA

CITY           SKY/WX    TMP DP  RH WIND       PRES   REMARKS
CUT BANK       FAIR      47   0  14 W18       30.21F
GREAT FALLS    FAIR      41  13  31 S15       30.28F
MALMSTROM AFB  FAIR      35  17  46 SW10      30.28F WCI  27
HELENA         FAIR      20  15  81 CALM      30.47S
BOWMANS CRNR   FAIR      33  11  40 S18       30.30F WCI  22
CHOTEAU          N/A     45   3  18 SW8       30.27F
FAIRFIELD      FAIR      38  12  35 S5        30.27F
POWER          FAIR      34  14  44 SW10      30.26F WCI  26
RAYNESFORD     FAIR      42  20  40 E3        30.29F
ULM            FAIR      35  16  47 S7        30.30F WCI  29
$$

MTZ011-013-016-021-045-047-050-051-120800-
NORTH CENTRAL MONTANA

CITY           SKY/WX    TMP DP  RH WIND       PRES   REMARKS
HAVRE          FAIR      29  19  66 W7        30.25F WCI  22
LEWISTOWN      FAIR      29  23  78 SE6       30.29F WCI  23
N BAR RANCH    FAIR      43  19  39 W8        30.30F
CHINOOK          N/A     19  16  86 CALM      30.26F
DENTON         FAIR      30  21  70 S13       30.24F WCI  20
GEYSER         FAIR      45  20  36 W18       30.26F
GRASS RANGE    FAIR      42  22  46 W10       30.24F
STANFORD       FAIR      37  18  44 CALM      30.29S
WINIFRED       FAIR      42  20  41 SW10      30.25F
$$

MTZ017>020-022>027-061-062-120800-
NORTHEAST MONTANA

CITY           SKY/WX    TMP DP  RH WIND       PRES   REMARKS
GLASGOW        FAIR      22  19  89 SE5       30.24F
GLENDIVE       FAIR      24  21  88 SW8       30.29F WCI  15
JORDAN           N/A     17  13  84 W3        30.26F
SIDNEY         FAIR      22  21  96 SW8       30.28F WCI  12
WOLF POINT     FAIR      19  16  88 W5        30.27F
MALTA          PTCLDY    19  16  86 CALM      30.26F
PLENTYWOOD       N/A     27  23  86 CALM      30.21F
POPLAR           N/A     23  19  86 CALM      30.27F
$$

MTZ028>42-056>058-120800-
SOUTHCENTRAL AND SOUTHEAST MONTANA

CITY           SKY/WX    TMP DP  RH WIND       PRES   REMARKS
BAKER          FAIR      24  22  91 W6        30.30F WCI  17
BILLINGS       FAIR      39  19  44 SW20      30.32F WCI  29
LIVINGSTON     FAIR      34  19  54 NW22G28   30.40R WCI  22
MILES CITY     FAIR      24  20  84 SE10      30.31F WCI  14
BIG TIMBER     CLEAR     41  18  38 SW28G35   30.35S
FORSYTH          N/A     27  18  69 CALM      30.31F
LAUREL           N/A     36  18  48 W9G15     30.35S WCI  29
ROUNDUP          N/A     29  14  53 S8        30.19F WCI  21
$$

REGIONAL REPORTS...DAKOTAS

CITY           SKY/WX    TMP DP  RH WIND       PRES   REMARKS
WILLISTON        N/A    N/A N/A N/A MISG      30.25F
MINOT          FAIR      29  26  89 SW9       30.20F WCI  20
DICKINSON      FAIR      26  24  92 W10       30.25F WCI  16
BEACH          FAIR      25  23  93 CALM      30.31F
CROSBY         FAIR      27  27 100 SW12      30.21S WCI  16
TIOGA          FAIR      27  27 100 W7        30.22F WCI  19
WATFORD CITY   FAIR      27  25  93 SW8       30.25F WCI  18
BISMARCK       CLOUDY    25  23  92 CALM      30.29F
GRAND FORKS    CLOUDY     8   6  92 SW8       30.27F WCI  -4
FARGO          FAIR       4   0  83 SW7       30.31F WCI  -8
BUFFALO SD       N/A     22  19  89 W7        30.24F WCI  13
RAPID CITY     FAIR      20  14  77 SW3       30.35F
$$

REGIONAL REPORTS...WYOMING/IDAHO/WASHINGTON

CITY           SKY/WX    TMP DP  RH WIND       PRES   REMARKS
GILLETTE       FAIR      34  17  50 SW13      30.34F WCI  25
SHERIDAN       FAIR      24  17  74 CALM      30.34F
BUFFALO WY     FAIR      37   7  28 SW6       30.35F
CODY           FAIR      25  17  72 CALM      30.39F
YELLOWSTONE LA   N/A     10   7  87 CALM      30.59S
IDAHO FALLS    FAIR      12  11  95 N5        30.59R
SALMON         CLOUDY    14  13  95 CALM      30.71S FOG
BOISE          CLOUDY    25  21  85 NE3       30.67S
SPOKANE        FOG       24  24 100 SW6       30.58R VSB 1/2 WCI  17
$$

REGIONAL REPORTS...ALBERTA

CITY           SKY/WX    TMP DP  RH WIND       PRES   REMARKS
EDMONTON       CLEAR     36  23  60 SW9       30.00F WCI  29
CALGARY        MOCLDY    37  23  56 S8        30.11F WCI  31
LETHBRIDGE     CLEAR     48   9  20 SW16      30.17R
MEDICINE HAT   CLEAR     34  21  60 SW9       30.16F WCI  26
$$

REGIONAL REPORTS...SASKATCHEWAN

CITY           SKY/WX    TMP DP  RH WIND       PRES   REMARKS
SWIFT CURRENT  CLEAR     28  19  69 SW15      30.13F WCI  17
REGINA         MOCLDY    27  23  86 SW9       30.14F WCI  17
SASKATOON      PTCLDY    30  25  80 SW8       30.06F WCI  23
$$




USA.gov is the U.S. government's official web portal to all federal, state and local government web resources and services.